Location: Unspecified
(33.6682°S, 0.0000°E)
Time: 18:38:32
(UTC+00:00)

Vanguard 2 Rocket - Pass Details

Date: 24 June 2019
Orbit: 553 x 3327 km, 32.9° (Epoch: 20 August)

Event Time Altitude Azimuth Distance (km) Brightness Sun altitude
Rises 09:12:50 0° 287° (WNW) 6,923 11.2 20.1°
Reaches altitude 10° 09:17:58 10° 288° (WNW) 5,600 10.8 20.8°
Maximum altitude 09:33:32 79° 11° (N) 1,888 9.1 22.8°
Drops below altitude 10° 09:42:05 10° 96° (E) 3,258 10.2 23.9°
Sets 09:44:18 0° 97° (E) 3,963 10.5 24.1°
